Tracking 20041 objects as of 22-Nov-2019
Live streaming from Space Station
objects crossing your sky now

COSMOS 1275 DEB

Track COSMOS 1275 DEB now!
10-day predictions


NORAD ID: 12740
Int'l Code: 1981-053CH
Perigee: 814.1 km
Apogee: 846.7 km
Inclination: 82.8 °
Period: 101.4 minutes
Semi major axis: 7201 km
RCS: 0.0069 m2 (small)
Launch date: June 4, 1981
Source: Commonwealth of Independent States (former USSR) (CIS)
Launch site: PLESETSK MISSILE AND SPACE COMPLEX (PKMTR)

Note: This is SATELLITE DEBRIS
aabbcc
Your satellite tracking list
Your tracking list is empty




NASA's NSSDC Master Catalog

Two Line Element Set (TLE):
1 12740U 81053CH  19325.57909052 +.00000570 +00000-0 +25637-3 0  9996
2 12740 082.8450 007.7257 0022602 197.9502 314.1655 14.20625318955068
Source of the keplerian elements: AFSPC